Regional Weather Roundup
Issued by NWS

Home | Current Version | Previous Version | Graphics & Text | Print | Product List | Glossary On
Versions: 1 2 3 4 5 6 7 8 9 10 11 12 13 14 15 16 17 18 19 20 21 22 23 24 25 26 27 28 29 30 31 32 33 34 35 36 37 38 39 40 41 42 43 44 45 46 47 48 49 50
000
ASUS43 KIND 221500
RWRIN

WEATHER ROUNDUP FOR INDIANA
NATIONAL WEATHER SERVICE INDIANAPOLIS IN
1100 AM EDT TUE AUG 22 2017

NOTE: "FAIR" INDICATES FEW OR NO CLOUDS BELOW 12,000 FEET WITH NO
SIGNIFICANT WEATHER AND/OR OBSTRUCTIONS TO VISIBILITY.

* - STATION DOES NOT REPORT WEATHER SUCH AS PRECIPITATION OR FOG.

+ - STATION NOT QUALITY CONTROLLED BY THE NATIONAL WEATHER SERVICE.
    USE DATA WITH CAUTION...ESPECIALLY DEWPOINT AND RELATIVE
    HUMIDITY OBSERVATIONS.

INZ001>003-010>013-019-020-221600-
NORTHWEST INDIANA

CITY           SKY/WX    TMP DP  RH WIND       PRES   REMARKS
GARY /AIRPORT/ CLOUDY    73  68  83 W12G23    29.87F
MICHIGAN CITY+ CLOUDY    72  70  94 W10       29.87S
MONTICELLO +   CLOUDY    69  68  95 S7        29.90F

$$

LMZ046-743>745-221600-
SOUTHERN LAKE MICHIGAN

STATION/POSITION TIME  TEMP    WIND        PRES    WAVE
                       AIR SEA DIR/SP/G            HT
                 (UTC) (F)     (DEG/KT/KT) (MB)    (FT)
BURNS HARBOR     1430   72     240/ 14/ 17 1011.9F
MICHIGAN CITY    1430   71     220/ 17/ 19   N/A
5NW MICH CITY    1450   72 74  250/ 16/ 21   N/A     4

$$

INZ004-005-014>016-021>024-221600-
NORTH CENTRAL INDIANA

CITY           SKY/WX    TMP DP  RH WIND       PRES   REMARKS
GOSHEN         CLOUDY    72  66  81 SW13      29.87S
SOUTH BEND     CLOUDY    71  70  96 W13       29.87S

$$

INZ006>009-017-018-025>027-221600-
NORTHEAST INDIANA

CITY           SKY/WX    TMP DP  RH WIND       PRES   REMARKS
FORT WAYNE     LGT RAIN  71  67  87 W10       29.90F

$$

INZ028-029-035-036-043>045-051>053-221600-
WEST CENTRAL INDIANA

CITY           SKY/WX    TMP DP  RH WIND       PRES   REMARKS
LAFAYETTE      LGT RAIN  69  69 100 CALM      29.91S
TERRE HAUTE    LGT RAIN  73  70  90 S5        29.94F

$$

INZ030>032-037>040-046>048-054>057-064-065-221600-
CENTRAL INDIANA

CITY           SKY/WX    TMP DP  RH WIND       PRES   REMARKS
ANDERSON       CLOUDY    72  68  88 MISG      29.94F
COLUMBUS       SUNNY     77  68  73 NW7       29.96F
GREENWOOD *+   PTSUNNY  N/A N/A N/A CALM      29.95F
INDIANAPOLIS   CLOUDY    73  69  87 S7        29.93F
-EAGLE CREEK   CLOUDY    72  68  87 S5        29.93F
KOKOMO +       LGT RAIN  70  68  93 W5        29.94R
MT COMFORT *+  PTSUNNY   72  68  88 CALM      29.95F
SHELBYVILLE    PTSUNNY   77  68  73 VRB5      29.94F

$$

INZ033-034-041-042-049-050-058-059-221600-
EAST CENTRAL INDIANA

CITY           SKY/WX    TMP DP  RH WIND       PRES   REMARKS
MUNCIE         CLOUDY    73  68  84 SW7       29.93F
RICHMOND +     CLOUDY    73  72  94 W10       29.97R FOG

$$

INZ060-061-067>069-081>083-085>088-221600-
SOUTHWEST INDIANA

CITY           SKY/WX    TMP DP  RH WIND       PRES   REMARKS
EVANSVILLE     CLOUDY    80  73  79 N9        29.99R
HUNTINGBURG +  CLOUDY    79  73  82 NW9       29.99R

$$

INZ062-063-066-070>080-084-089>092-221600-
SOUTH CENTRAL AND SOUTHEAST INDIANA

CITY           SKY/WX    TMP DP  RH WIND       PRES   REMARKS
BLOOMINGTON    CLOUDY    76  67  73 CALM      29.97S
MADISON *+     CLOUDY    81  72  74 W9        29.99F
SEYMOUR +      CLOUDY    82  72  69 W13G18    29.96S

$$





USA.gov is the U.S. government's official web portal to all federal, state and local government web resources and services.